Location: Ajisawe
(8.4333°N, 4.3833°E)
Time: 22:20:14
(UTC+00:00)

Vanguard 2 Rocket - Pass Details

Date: 25 April 2021
Orbit: 554 x 3326 km, 32.9° (Epoch: 16 May)

Event Time Altitude Azimuth Distance (km) Brightness Sun altitude
Rises 18:40:44 0° 304° (WNW) 7,251 13.0 -12.5°
Reaches altitude 10° 18:45:55 10° 304° (NW) 6,076 12.3 -13.7°
Maximum altitude 19:04:12 89° 35° (NE) 2,298 8.8 -18.1°
Enters shadow 19:11:54 25° 124° (SE) 3,033 9.0 -19.9°
Drops below altitude 10° 19:14:48 10° 124° (SE) 3,762 - -20.6°
Sets 19:17:15 0° 124° (SE) 4,459 - -21.1°
